Regional Weather Roundup
Issued by NWS Northern Indiana

Home | Current Version | Previous Version | Graphics & Text | Print | Product List | Glossary On
Versions: 1 2 3 4 5 6 7 8 9 10 11 12 13 14 15 16 17 18 19 20 21 22 23 24 25 26 27 28 29 30 31 32 33 34 35 36 37 38 39 40 41 42 43 44 45 46 47 48 49 50
000
ASUS43 KIWX 191010
RWRIWX

KIWX WEATHER ROUNDUP
NATIONAL WEATHER SERVICE NORTHERN INDIANA
600 AM EDT SUN APR 19 2015

NOTE: "FAIR" INDICATES FEW OR NO CLOUDS BELOW 12,000 FEET WITH NO
SIGNIFICANT WEATHER AND/OR OBSTRUCTIONS TO VISIBILITY.

* THESE STATIONS ARE NOT UNDER NWS QUALITY CONTROL. THEY ALSO MAY NOT
  REPORT WEATHER SUCH AS PRECIPITATION OR FOG.

INZ001>027-191100-
NORTHERN INDIANA

CITY           SKY/WX    TMP DP  RH WIND       PRES   REMARKS
GARY*          MOCLDY    55  27  33 SE9       29.90F
VALPARAISO     PTCLDY    50  33  52 E12       29.91F
MICHIGAN CITY* PTCLDY    52  25  35 E8        29.92F
KNOX*          PTCLDY    52  12  20 E12       29.90F
SOUTH BEND     CLOUDY    55  28  35 E13       29.95F
GOSHEN         CLOUDY    51  31  46 E15       29.95S
MONTICELLO*    CLOUDY    52  40  63 E6        29.88F
LOGANSPORT*    CLOUDY    50  37  62 E12       29.90S
ROCHESTER*     CLOUDY    54  34  47 E10       29.92F
WARSAW*        MOCLDY    50  32  50 E14G20    29.93F
ANGOLA*        CLEAR     48  30  49 E12       29.98S
FORT WAYNE     PTCLDY    49  36  61 E16       29.95F
HUNTINGTON*    PTCLDY    47  33  57 E9G16     29.93F
MARION*        MOCLDY    50  38  63 E15       29.90F

$$
INZ028>050-191100-
CENTRAL INDIANA

CITY           SKY/WX    TMP DP  RH WIND       PRES   REMARKS
LAFAYETTE      CLOUDY    53  40  61 E10       29.86F
KOKOMO*        MOCLDY    50  39  66 E10       29.90S
MUNCIE*        MOCLDY    51  40  65 E9        29.90F
INDIANAPOLIS   CLOUDY    61  46  57 E14       29.82F

$$
MIZ043>046-050>051-056>058-064>065-071>073-077>080-191100-
SOUTHWEST LOWER MICHIGAN

CITY           SKY/WX    TMP DP  RH WIND       PRES   REMARKS
BATTLE CREEK   PTCLDY    49  28  44 E13       30.00F
BENTON HARBOR  CLOUDY    52  28  39 E15       29.93F
COLDWATER*     MOCLDY    49  27  41 E13G20    29.99F
HILLSDALE*     MOCLDY    47  30  50 E20       30.01F
HOLLAND        MOCLDY    47  31  53 E12       29.99F
GRAND RAPIDS   MOCLDY    43  29  57 E16       30.02F
KALAMAZOO      FAIR      49  29  46 E6        29.99F
STURGIS*       CLOUDY    52  28  40 E13G21    29.96F
THREE RIVERS*  FAIR      52  26  36 E12       29.98S

$$
OHZ001>008-015>018-024>025-191100-
NORTHWEST OHIO

CITY           SKY/WX    TMP DP  RH WIND       PRES   REMARKS
WAUSEON*       FAIR      46  34  61 E14       30.01F
DEFIANCE       MOCLDY    50  32  50 E13       29.99F
FINDLAY        PTCLDY    50  34  54 NE14      29.96F
TOLEDO EXPRESS PTCLDY    47  32  56 E18G25    30.01F
TOLEDO METCALF PTCLDY    47  32  56 E9G21     30.03F
LIMA           MOCLDY    50  38  63 NE13      29.94F

$$
AND FOR LAKE MICHIGAN COASTAL AND OPEN LAKE BUOY OBSERVATIONS

STATION/POSITION TEMP    WIND        PRES    VSBY  WAVE
                 AIR SEA DIR/SP/G                  HT/PER
                 (F)     (DEG/KT/KT) (MB)    (MI)  (FT/S)
CALUMET HARBOR    52      90/  7/  9   N/A
MICHIGAN CITY     54      90/ 14/ 20   N/A
BURNS HARBOR      56     120/ 18/ 23 1012.9S
SAINT JOSEPH      55     100/  2/  9 1013.9F
MICHIGAN CITY     52 44  130/ 12/ 16   N/A           3/ 6

$$
&&



USA.gov is the U.S. government's official web portal to all federal, state and local government web resources and services.